Overview Statistics Trail Chart Weather Telemetry Raw packets
 

This is the latest recevied weather packets stored in our database for station/object KN6CRX-10. If no packets are shown the sender has not sent any weather packets the latest 10 day(s).

<< 34 35 36 37 38 39 40 >>
Time Temp. Humidity Pressure Rain* Wind** Luminosity Snow
1788169201 8.89° C 67% 1020.7 hPa 0 mm - 0 W/m² -
1788168896 8.89° C 65% 1020.8 hPa 0 mm - 0 W/m² -
1788168593 8.89° C 66% 1020.9 hPa 0 mm - 0 W/m² -
1788168288 9.44° C 68% 1020.7 hPa 0 mm - 0 W/m² -
1788167983 9.44° C 64% 1020.6 hPa 0 mm - 0 W/m² -
1788167678 9.44° C 64% 1020.5 hPa 0 mm - 0 W/m² -
1788167373 8.89° C 68% 1020.5 hPa 0 mm - 0 W/m² -
1788167070 8.89° C 67% 1020.7 hPa 0 mm - 0 W/m² -
1788166766 9.44° C 67% 1020.5 hPa 0 mm - 0 W/m² -
1788166461 9.44° C 66% 1020.7 hPa 0 mm - 0 W/m² -
1788166160 9.44° C 68% 1020.7 hPa 0 mm - 0 W/m² -
1788165856 9.44° C 65% 1020.3 hPa 0 mm - 0 W/m² -
1788165553 10° C 65% 1020.2 hPa 0 mm - 0 W/m² -
1788165248 10° C 67% 1020.3 hPa 0 mm - 0 W/m² -
1788164946 10° C 65% 1020.5 hPa 0 mm - 0 W/m² -
1788164646 10° C 65% 1020.2 hPa 0 mm - 0 W/m² -
1788164342 10° C 63% 1020.5 hPa 0 mm - 0 W/m² -
1788164037 10° C 65% 1020.2 hPa 0 mm - 0 W/m² -
1788163733 10° C 64% 1020.2 hPa 0 mm - 0 W/m² -
1788163428 10° C 65% 1020.3 hPa 0 mm - 0 W/m² -
1788163124 10° C 64% 1020.2 hPa 0 mm - 0 W/m² -
1788162824 10° C 64% 1020.3 hPa 0 mm - 0 W/m² -
1788162519 10.56° C 62% 1020.6 hPa 0 mm - 0 W/m² -
1788162218 10.56° C 61% 1020.2 hPa 0 mm - 0 W/m² -
1788161914 10.56° C 63% 1020.5 hPa 0 mm - 0 W/m² -

* Rain latest hour (hover to see other rain measurements)
** Current wind speed in m/s (hover to see current wind gust speed)